Retour au catalogue

SYMPHONIE 2

ActifCommunicationsGEO
NORAD 8132·PAYLOAD·🇩🇪 Germany

Lancé Aug 27, 1975 depuis Cape Canaveral Space Force Station

Loading…

TLE

FraisSource: Space-Track

Époque: Sep 14, 2026, 05:17 UTC

1 08132U 75077A   26257.22056406  .00000000  00000-0  00000-0 0  9997
2 08132   3.8154 273.3645 0003571  10.4044 157.9540  0.99979551143346

Suivez SYMPHONIE 2 en temps réel avec AllMySat

Download on the App Store